Powrót do katalogu

STARLINK-4197

AktywnyŁącznośćVLEO
NORAD 52849·PAYLOAD·🇺🇸 United States

Wystrzelony Jun 17, 2022 z Cape Canaveral Space Force Station

Loading…

Następne Przeloty (najbliższe 24 godziny)

TLE

ŚwieżeSource: CelesTrak SupGP

Epoka: Sep 15, 2026, 00:22 UTC

1 52849C 22062V   26258.01576389 -.00007288  00000+0 -20847-3 0  2580
2 52849  53.1574 243.5877 0001387  94.6185 325.5051 15.35408927    19

Śledź STARLINK-4197 w czasie rzeczywistym z AllMySat

Download on the App Store